STARS-AO

Satellite information

Favourite Embed

Satellite Type and Status

PAYLOADIN ORBIT

Key statistics

Satellite STARS-AO at a glance.

Uptime

2443

Days in orbit

Revolutions

≈ 15.1

Per day

Orbit

SSO

Sun Synchronous Orbit

Inclination

98.1

Latest

Satellite identification and parameters

Extended collection of information and parameters for STARS-AO.

Object identification

Identified? True

Debris? False

Object name: STARS-AO

International designator: 2018-084J

Object number (NORAD): 43679

Object ID (CCSDS): 43679

Country: JAPAN (JPN)

Current information (Y/N): Y

RCS size: SMALL

Orbital parameters

Period: 95.271 minutes

Inclination: 98.0744 deg

SMA: 6909.81 km

Apoapsis: 532.42 km

Periapsis: 530.929 km

RAAN: 15.9611 deg

Eccentricy: 0.0001079

Argument of periapsis: 250.7434 deg

Mean anomaly: 109.3677 deg

Mean motion: 15.11484203 rev/day

Mean motion (dot): 0.00004331 rev/day2

B* drag term: 0.00026012 1/REarth

Two-line elements (TLE)

Creation date: July 6, 2025, 6:05 p.m.

Reference frame: TEME

Reference center: EARTH

Epoch: July 6, 2025, 11:57 a.m. UTC

TLE line 0: 0 STARS-AO

TLE line 1: 1 43679U 18084J 25187.49833759 .00004331 00000-0 26012-3 0 9996

TLE line 2: 2 43679 98.0744 15.9611 0001079 250.7434 109.3677 15.11484203365150

Live tracking on map

Real-time ground track for satellite STARS-AO.

In-orbit conjunctions

There are no conjunctions computed for STARS-AO, at the moment. Check back to stay up to date, as we update our databases every day.

Go to all conjunctions

Associated space launch

KhalifaSat is an Earth observation satellite for UAE. KhalifaSat will provide high-resolution imagery of Earth to be used for various purposes, including urban planning, change monitoring, area classification, monitoring environmental change and aiding relief efforts for natural disasters. GOSAT 2 (Greenhouse gases Observing SATellite 2) is a Japanese satellite dedicated to greenhouse gas measurement from space. It's a follow on to the GOSAT mission and includes such improvements as an ability to gather more precise data and monitor carbon monoxide concentrations.

STARS-AO was lifted into orbit during the mission ‘H-IIA 202 | KhalifaSat & GOSAT-2’, on board a H-IIA space rocket.

The launch took place on Oct. 29, 2018, 4:08 a.m. from Yoshinobu Launch Complex LP-1.

For more information about the launch, click the button.

Launch to space H-IIA 202 | KhalifaSat & GOSAT-2
H-IIA 202 | KhalifaSat & GOSAT-2

Agency: N/A

Status: Launch Successful

Launch date: Oct. 29, 2018, 4:08 a.m. UTC

Rocket: H-IIA

Launch pad: Yoshinobu Launch Complex LP-1

Location: Tanegashima Space Center, Japan

...

Latest news about this satellite

News about space launch
Japan Launches UAE's KhalifaSat and Climate-Monitoring Satellite Into Orbit


Newsletter sign-up

Weekly statistics, charts and insights to help you stay on top of the space industry.